QPF
0.00 0.00 0.00 0.00 0.00 0.00 0.00 0.00 0.00 0.00 0.00 0.00 0.00 0.00 0.00 0.00 0.00 0.00 0.00 0.00 0.00 0.00 0.00 0.00 0.05 0.12 0.02 0.04 0.00 0.00 0.00 0.01 0.01 0.02 0.01 0.00 0.00 0.00 0.00 0.00 0.01 0.00 0.00
0.00 0.00 0.00 0.00 0.00 0.00 0.00 0.00 0.00 0.00 0.00 0.00 0.00 0.00 0.00 0.00 0.00 0.00 0.00 0.00 0.00 0.00 0.00 0.01 0.01 0.03 0.08 0.15 0.05 0.00 0.01 0.00 0.01 0.05 0.10 0.04 0.00 0.00 0.00 0.00 0.00 0.00 0.00
0.00 0.00 0.00 0.00 0.00 0.00 0.00 0.00 0.00 0.00 0.00 0.00 0.00 0.00 0.00 0.00 0.00 0.00 0.00 0.00 0.00 0.00 0.01 0.03 0.04 0.10 0.06 0.06 0.04 0.02 0.01 0.00 0.00 0.02 0.06 0.05 0.04 0.01 0.03 0.04 0.02 0.01 0.01
0.00 0.00 0.00 0.00 0.00 0.00 0.00 0.00 0.00 0.00 0.00 0.00 0.02 0.02 0.02 0.02 0.02 0.00 0.00 0.00 0.01 0.00 0.00 0.02 0.05 0.13 0.07 0.04 0.01 0.01 0.01 0.00 0.00 0.02 0.10 0.07 0.02 0.01 0.00 0.03 0.02 0.00 0.00
0.00 0.00 0.00 0.00 0.00 0.00 0.00 0.00 0.00 0.00 0.00 0.00 0.01 0.01 0.03 0.03 0.02 0.00 0.00 0.00 0.01 0.01 0.00 0.00 0.00 0.00 0.01 0.02 0.04 0.03 0.03 0.02 0.02 0.03 0.08 0.01 0.00 0.00 0.00 0.00 0.00 0.00 0.00
0.00 0.00 0.00 0.00 0.00 0.00 0.00 0.00 0.00 0.00 0.00 0.00 0.00 0.00 0.00 0.00 0.00 0.00 0.00 0.00 0.01 0.03 0.01 0.00 0.00 0.00 0.00 0.00 0.04 0.11 0.06 0.07 0.02 0.02 0.01 0.01 0.00 0.00 0.00 0.00 0.00 0.00 0.00
0.00 0.00 0.00 0.00 0.00 0.00 0.01 0.00 0.00 0.00 0.00 0.00 0.00 0.00 0.00 0.00 0.00 0.00 0.00 0.00 0.01 0.02 0.01 0.01 0.00 0.00 0.00 0.00 0.00 0.01 0.02 0.02 0.00 0.00 0.00 0.00 0.00 0.00 0.00 0.00 0.00 0.00 0.00
0.00 0.00 0.00 0.00 0.00 0.00 0.00 0.00 0.00 0.00 0.00 0.00 0.00 0.00 0.00 0.00 0.00 0.00 0.00 0.00 0.00 0.01 0.01 0.00 0.00 0.00 0.00 0.00 0.00 0.00 0.00 0.00 0.00 0.00 0.00 0.00 0.00 0.00 0.00 0.00 0.00 0.00 0.00
0.00 0.00 0.00 0.00 0.00 0.00 0.00 0.00 0.00 0.00 0.00 0.00 0.00 0.00 0.00 0.00 0.00 0.00 0.00 0.00 0.00 0.00 0.00 0.00 0.00 0.00 0.00 0.00 0.00 0.00 0.00 0.00 0.00 0.00 0.00 0.00 0.00 0.00 0.00 0.00 0.00 0.00 0.00
0.00 0.00 0.00 0.00 0.00 0.00 0.00 0.00 0.00 0.00 0.00 0.01 0.00 0.00 0.00 0.00 0.00 0.00 0.00 0.00 0.00 0.00 0.00 0.00 0.00 0.00 0.00 0.00 0.00 0.00 0.00 0.00 0.00 0.00 0.00 0.00 0.00 0.00 0.00 0.00 0.00 0.00 0.00
0.00 0.00 0.00 0.00 0.01 0.00 0.01 0.01 0.01 0.01 0.01 0.00 0.00 0.00 0.00 0.00 0.00 0.00 0.00 0.00 0.00 0.00 0.00 0.00 0.00 0.00 0.00 0.00 0.00 0.00 0.00 0.00 0.00 0.00 0.00 0.00 0.00 0.00 0.00 0.00 0.00 0.00 0.00
0.00 0.00 0.00 0.01 0.02 0.02 0.02 0.02 0.02 0.02 0.01 0.00 0.00 0.00 0.00 0.00 0.00 0.00 0.00 0.00 0.00 0.00 0.00 0.00 0.00 0.00 0.00 0.00 0.00 0.00 0.00 0.00 0.00 0.00 0.00 0.00 0.00 0.00 0.00 0.00 0.00 0.00 0.00
0.00 0.00 0.01 0.02 0.06 0.06 0.03 0.01 0.01 0.01 0.01 0.00 0.00 0.01 0.00 0.00 0.00 0.00 0.00 0.00 0.00 0.00 0.00 0.00 0.00 0.00 0.00 0.00 0.00 0.00 0.00 0.00 0.00 0.00 0.00 0.00 0.00 0.00 0.00 0.00 0.00 0.00 0.00
0.01 0.01 0.02 0.07 0.11 0.11 0.08 0.05 0.03 0.02 0.02 0.01 0.00 0.00 0.00 0.00 0.00 0.00 0.00 0.00 0.00 0.00 0.00 0.00 0.00 0.00 0.00 0.00 0.00 0.00 0.00 0.00 0.00 0.00 0.00 0.00 0.00 0.00 0.00 0.00 0.00 0.00 0.00
0.01 0.01 0.03 0.05 0.06 0.09 0.12 0.09 0.08 0.09 0.07 0.03 0.01 0.00 0.00 0.00 0.00 0.00 0.00 0.00 0.00 0.00 0.00 0.00 0.00 0.00 0.00 0.00 0.00 0.00 0.00 0.00 0.00 0.00 0.00 0.00 0.00 0.00 0.00 0.00 0.00 0.00 0.00
0.00 0.00 0.00 0.01 0.02 0.02 0.06 0.08 0.06 0.06 0.05 0.03 0.01 0.00 0.00 0.00 0.00 0.00 0.00 0.00 0.00 0.00 0.00 0.00 0.00 0.00 0.00 0.00 0.00 0.00 0.00 0.00 0.00 0.00 0.00 0.00 0.00 0.00 0.00 0.00 0.00 0.00 0.00
0.00 0.00 0.00 0.00 0.00 0.00 0.00 0.01 0.01 0.02 0.04 0.04 0.04 0.02 0.00 0.00 0.00 0.00 0.00 0.00 0.00 0.00 0.00 0.00 0.00 0.00 0.00 0.00 0.00 0.00 0.00 0.00 0.00 0.00 0.00 0.00 0.00 0.00 0.00 0.00 0.00 0.00 0.00
0.00 0.00 0.00 0.00 0.00 0.00 0.00 0.00 0.01 0.02 0.02 0.01 0.01 0.00 0.00 0.00 0.00 0.00 0.00 0.00 0.00 0.00 0.00 0.00 0.00 0.00 0.00 0.00 0.00 0.00 0.00 0.00 0.00 0.00 0.00 0.00 0.00 0.00 0.00 0.00 0.00 0.00 0.00
0.00 0.00 0.00 0.00 0.00 0.00 0.00 0.00 0.00 0.02 0.00 0.00 0.00 0.00 0.00 0.00 0.00 0.00 0.00 0.00 0.00 0.00 0.00 0.00 0.00 0.00 0.00 0.00 0.00 0.00 0.00 0.00 0.00 0.00 0.00 0.00 0.00 0.00 0.00 0.00 0.00 0.00 0.00
0.00 0.00 0.00 0.00 0.00 0.00 0.00 0.00 0.00 0.00 0.00 0.00 0.00 0.00 0.00 0.00 0.00 0.00 0.00 0.00 0.00 0.00 0.00 0.00 0.00 0.00 0.00 0.00 0.00 0.00 0.00 0.00 0.00 0.00 0.00 0.00 0.00 0.00 0.00 0.00 0.00 0.00 0.00
0.00 0.00 0.00 0.00 0.00 0.00 0.00 0.00 0.00 0.00 0.00 0.00 0.00 0.00 0.00 0.00 0.00 0.00 0.00 0.00 0.00 0.00 0.00 0.00 0.00 0.00 0.00 0.00 0.00 0.00 0.00 0.00 0.00 0.00 0.00 0.00 0.00 0.00 0.00 0.00 0.00 0.00 0.00
0.00 0.00 0.00 0.00 0.00 0.00 0.00 0.00 0.00 0.00 0.00 0.00 0.00 0.00 0.00 0.00 0.00 0.00 0.00 0.00 0.00 0.00 0.00 0.00 0.00 0.00 0.00 0.00 0.00 0.00 0.00 0.00 0.00 0.00 0.00 0.00 0.00 0.00 0.00 0.00 0.00 0.00 0.00
0.00 0.00 0.00 0.00 0.00 0.00 0.00 0.00 0.00 0.00 0.00 0.00 0.00 0.00 0.00 0.00 0.00 0.00 0.00 0.00 0.00 0.00 0.00 0.00 0.00 0.00 0.00 0.00 0.00 0.00 0.00 0.00 0.00 0.00 0.00 0.00 0.00 0.00 0.00 0.00 0.00 0.01 0.00
0.00 0.00 0.00 0.00 0.00 0.00 0.00 0.00 0.00 0.00 0.00 0.00 0.00 0.00 0.00 0.00 0.00 0.00 0.00 0.00 0.00 0.00 0.00 0.00 0.00 0.00 0.00 0.00 0.00 0.00 0.00 0.00 0.00 0.00 0.00 0.00 0.00 0.00 0.00 0.00 0.00 0.01 0.01
0.00 0.00 0.00 0.00 0.00 0.00 0.00 0.00 0.00 0.00 0.00 0.00 0.00 0.00 0.00 0.00 0.00 0.00 0.00 0.00 0.00 0.00 0.00 0.00 0.00 0.00 0.00 0.00 0.00 0.00 0.00 0.00 0.00 0.00 0.00 0.00 0.00 0.00 0.00 0.00 0.00 0.01 0.01
0.00 0.00 0.00 0.00 0.00 0.00 0.00 0.00 0.00 0.00 0.00 0.00 0.00 0.00 0.00 0.00 0.00 0.00 0.00 0.00 0.00 0.00 0.00 0.00 0.00 0.01 0.00 0.00 0.00 0.00 0.00 0.00 0.00 0.00 0.00 0.00 0.00 0.00 0.00 0.01 0.01 0.01 0.01
MSLP
1005.22 1005.27 1005.15 1007.38 1007.01 1006.73 1007.09 1006.87 1007.07 1007.16 1007.12 1007.82 1007.88 1008.07 1008.61 1008.87 1008.84 1009.03 1009.54 1010.10 1010.38 1010.11 1009.99 1010.11 1010.26 1010.10 1009.56 1009.84 1009.83 1010.00 1010.42 1010.52 1010.19 1009.43 1009.74 1010.58 1011.10 1011.13 1011.25 1011.81 1011.93 1011.95 1011.88
1006.20 1005.60 1003.80 1006.26 1006.97 1005.80 1006.14 1006.16 1006.22 1006.70 1006.62 1006.99 1007.28 1007.95 1008.50 1008.63 1008.66 1008.61 1008.03 1008.29 1009.27 1009.84 1009.63 1009.84 1009.97 1009.95 1009.65 1009.59 1009.64 1009.98 1010.33 1010.54 1010.42 1010.08 1010.42 1010.92 1011.01 1011.50 1011.87 1012.03 1011.94 1011.59 1011.50
1006.17 1005.68 1005.12 1005.77 1006.53 1005.82 1005.91 1006.10 1005.92 1006.07 1006.35 1006.72 1007.41 1007.79 1008.18 1008.61 1008.87 1009.09 1008.64 1009.01 1009.03 1009.41 1009.44 1009.61 1009.54 1009.60 1009.65 1009.66 1009.58 1009.94 1010.10 1010.30 1010.31 1010.31 1010.46 1010.77 1011.28 1011.58 1011.87 1011.91 1012.18 1012.21 1012.53
1005.86 1005.37 1005.41 1005.72 1005.65 1005.28 1005.52 1005.90 1006.00 1005.92 1006.36 1006.93 1007.40 1007.46 1007.79 1008.22 1008.61 1008.66 1008.91 1008.79 1009.48 1009.85 1009.72 1010.08 1010.23 1009.57 1009.56 1009.84 1010.04 1010.23 1010.10 1010.22 1010.33 1010.55 1010.97 1011.69 1011.87 1012.27 1011.91 1011.81 1012.36 1012.30 1012.64
1006.47 1006.35 1006.25 1006.01 1005.34 1005.09 1005.19 1005.44 1005.73 1005.93 1006.28 1006.79 1007.06 1007.34 1007.93 1008.04 1008.36 1008.53 1008.39 1009.01 1009.41 1009.64 1009.31 1010.22 1010.40 1010.48 1010.49 1010.29 1010.23 1010.09 1010.46 1010.59 1010.81 1011.03 1011.72 1012.42 1012.70 1012.79 1012.85 1012.82 1012.81 1012.73 1012.53
1006.55 1006.33 1006.15 1005.86 1005.65 1005.41 1005.25 1005.69 1005.83 1005.67 1005.74 1006.20 1006.63 1006.96 1007.47 1007.62 1008.57 1008.54 1008.67 1008.96 1008.48 1008.51 1009.38 1009.79 1010.62 1010.98 1010.90 1010.67 1010.59 1010.97 1010.82 1011.12 1011.62 1012.04 1012.79 1013.10 1013.46 1013.60 1013.51 1013.45 1013.36 1013.02 1012.33
1005.89 1005.66 1005.75 1005.74 1005.67 1005.57 1005.34 1005.37 1005.43 1005.48 1005.64 1005.82 1006.31 1006.82 1007.14 1007.67 1008.90 1008.82 1009.18 1008.45 1008.19 1008.46 1009.38 1009.81 1010.02 1010.65 1011.03 1011.19 1011.32 1011.38 1011.74 1011.80 1011.92 1012.45 1012.82 1013.25 1013.55 1013.94 1013.77 1013.71 1013.61 1013.38 1012.80
1006.07 1005.76 1005.53 1005.66 1005.55 1005.48 1005.51 1005.20 1005.20 1005.25 1005.50 1005.81 1006.19 1006.75 1007.15 1007.70 1008.64 1009.36 1009.54 1008.59 1008.55 1008.99 1009.79 1009.95 1010.17 1010.53 1010.99 1010.92 1010.85 1011.25 1011.74 1012.11 1012.32 1012.16 1012.25 1012.64 1013.20 1013.53 1013.39 1013.41 1013.44 1013.04 1012.47
1006.02 1005.52 1005.19 1005.05 1005.47 1005.28 1005.34 1005.30 1005.24 1005.36 1005.54 1005.60 1005.89 1006.46 1007.01 1007.76 1008.53 1009.24 1009.24 1008.82 1009.08 1009.57 1010.29 1010.46 1010.78 1011.27 1011.71 1011.53 1011.06 1011.45 1011.78 1012.07 1012.93 1013.05 1013.03 1013.35 1013.08 1012.80 1012.96 1012.47 1012.38 1012.26 1011.91
1005.86 1005.53 1005.24 1004.82 1004.77 1004.89 1004.88 1005.15 1005.34 1005.42 1005.55 1005.75 1006.27 1006.50 1006.88 1007.67 1008.46 1008.83 1009.04 1008.72 1009.10 1009.27 1010.46 1011.06 1011.51 1011.69 1012.13 1012.02 1011.39 1011.58 1011.89 1012.18 1012.43 1012.78 1013.16 1013.25 1012.92 1013.39 1013.09 1012.42 1012.23 1012.07 1012.01
1005.55 1005.32 1005.11 1004.78 1004.15 1004.36 1004.55 1004.89 1005.03 1005.48 1005.76 1006.09 1006.24 1006.66 1006.97 1007.66 1008.64 1009.05 1009.11 1008.45 1008.53 1008.85 1009.80 1010.31 1011.00 1012.30 1012.78 1012.66 1012.48 1012.05 1012.40 1012.53 1012.79 1012.36 1012.43 1012.14 1012.46 1012.52 1012.72 1012.71 1012.96 1012.66 1012.51
1005.52 1005.03 1004.77 1004.21 1003.78 1003.59 1004.00 1004.30 1004.68 1005.18 1005.51 1006.06 1006.35 1006.73 1007.28 1007.82 1008.52 1008.85 1008.97 1008.73 1008.75 1008.69 1009.62 1010.40 1011.90 1012.53 1013.27 1012.97 1012.66 1013.00 1013.02 1012.72 1011.91 1011.73 1011.71 1011.83 1012.02 1012.10 1012.66 1013.02 1013.11 1013.17 1012.98
1004.81 1004.41 1004.24 1003.96 1003.36 1003.28 1003.55 1004.03 1004.57 1005.10 1005.61 1006.29 1006.36 1006.53 1007.30 1007.98 1008.47 1009.01 1009.01 1009.51 1009.67 1009.26 1010.28 1011.59 1012.46 1012.71 1012.86 1013.12 1013.32 1013.32 1013.28 1012.19 1011.92 1011.90 1011.99 1012.22 1012.50 1012.80 1013.01 1012.66 1012.69 1012.50 1012.48
1004.54 1004.09 1004.13 1003.85 1003.71 1003.41 1003.80 1004.32 1004.65 1005.16 1005.64 1006.09 1006.78 1007.44 1007.58 1009.34 1008.37 1009.04 1009.56 1010.02 1010.42 1010.68 1011.60 1012.11 1012.60 1012.49 1012.30 1012.87 1012.95 1012.72 1012.61 1012.79 1012.59 1012.34 1012.61 1012.56 1012.62 1012.43 1012.43 1012.45 1012.39 1012.01 1011.84
1005.93 1005.51 1005.27 1004.99 1004.85 1004.78 1005.04 1005.84 1005.76 1005.85 1005.79 1006.46 1006.93 1007.47 1007.86 1008.70 1010.00 1008.26 1009.33 1009.89 1010.17 1010.35 1011.22 1011.97 1011.75 1011.87 1011.86 1011.96 1012.23 1012.47 1012.57 1012.50 1012.58 1012.95 1012.93 1012.68 1012.57 1012.54 1012.34 1012.43 1012.34 1011.94 1012.02
1007.04 1006.82 1006.33 1005.95 1005.58 1005.68 1006.05 1006.27 1006.97 1007.35 1007.01 1006.14 1008.47 1007.37 1009.42 1009.63 1009.75 1009.70 1010.35 1010.79 1010.92 1011.40 1011.29 1011.10 1011.28 1011.19 1011.29 1011.49 1011.66 1011.90 1012.08 1012.67 1012.74 1012.79 1012.86 1012.74 1012.44 1012.29 1012.29 1012.34 1012.20 1012.13 1012.01
1007.51 1007.31 1007.39 1007.30 1007.23 1007.26 1007.21 1007.02 1007.45 1007.78 1007.61 1008.97 1010.25 1008.90 1009.51 1010.40 1010.65 1011.53 1011.50 1011.44 1011.70 1011.68 1011.05 1010.86 1010.73 1010.90 1010.97 1011.57 1011.67 1011.67 1011.83 1012.42 1013.28 1012.80 1012.67 1012.54 1012.55 1012.33 1012.60 1012.38 1012.29 1012.19 1012.23
1008.69 1008.35 1008.16 1008.33 1008.01 1008.42 1008.60 1008.76 1008.15 1008.44 1009.13 1010.66 1011.37 1011.16 1011.98 1011.53 1012.14 1011.93 1011.73 1011.77 1011.72 1011.74 1011.09 1010.62 1010.61 1010.76 1011.04 1011.44 1011.52 1011.58 1011.90 1012.34 1012.41 1012.52 1012.43 1012.47 1012.33 1012.38 1012.15 1012.02 1012.04 1012.16 1012.03
1008.87 1008.89 1008.92 1008.64 1009.04 1009.40 1009.70 1009.69 1009.64 1009.72 1010.85 1011.71 1011.95 1011.68 1012.68 1013.04 1012.69 1012.09 1011.94 1011.40 1010.84 1010.77 1010.43 1010.41 1010.65 1010.73 1010.93 1011.18 1011.51 1011.87 1012.36 1012.23 1012.33 1012.30 1012.23 1012.20 1012.27 1012.15 1012.14 1012.14 1012.08 1012.51 1012.63
1009.41 1009.51 1008.86 1008.69 1008.76 1008.97 1009.53 1009.95 1010.20 1010.16 1010.38 1010.88 1011.11 1011.55 1012.13 1012.64 1012.26 1011.58 1011.03 1010.82 1010.68 1010.46 1010.24 1010.24 1010.28 1010.68 1010.95 1011.19 1011.48 1011.75 1011.94 1011.97 1011.94 1012.03 1011.96 1012.08 1012.21 1012.31 1012.14 1012.14 1011.98 1011.80 1011.56
1008.87 1008.96 1009.41 1008.85 1008.83 1009.02 1009.22 1009.38 1009.69 1009.92 1010.31 1010.66 1010.70 1010.74 1010.92 1011.22 1010.82 1010.21 1009.92 1009.89 1010.01 1010.14 1010.12 1010.10 1010.06 1010.42 1010.83 1011.01 1011.35 1011.36 1011.37 1011.35 1011.38 1011.56 1011.73 1011.89 1012.02 1012.04 1012.01 1012.07 1011.85 1011.84 1011.75
1008.85 1009.08 1009.11 1009.21 1009.36 1009.46 1009.43 1009.43 1009.64 1009.73 1009.87 1009.99 1010.09 1010.67 1010.89 1010.50 1009.78 1009.39 1009.42 1009.50 1009.72 1010.02 1010.15 1010.32 1010.40 1010.19 1010.13 1010.22 1010.68 1010.87 1010.89 1011.03 1011.02 1011.29 1011.46 1011.61 1011.71 1011.56 1011.46 1011.52 1011.54 1011.32 1011.22
1008.65 1008.85 1009.08 1009.25 1009.43 1009.59 1009.51 1009.35 1009.21 1009.11 1008.95 1009.03 1009.24 1009.53 1009.89 1009.58 1009.26 1009.26 1009.29 1009.50 1009.65 1010.05 1010.15 1010.33 1010.47 1010.42 1010.12 1010.08 1010.36 1010.65 1010.62 1010.56 1010.73 1010.97 1011.07 1011.13 1010.99 1010.90 1010.81 1010.86 1010.87 1010.90 1010.96
1008.49 1008.81 1009.13 1009.28 1009.25 1009.01 1009.02 1009.22 1009.33 1009.44 1009.26 1009.22 1009.18 1009.16 1009.12 1009.09 1009.08 1009.13 1009.34 1009.32 1009.60 1009.91 1010.09 1010.30 1010.31 1010.24 1009.99 1009.97 1009.91 1010.18 1010.67 1011.09 1011.21 1010.99 1010.93 1010.95 1010.99 1011.14 1010.67 1010.32 1010.24 1010.25 1010.11
1008.51 1008.86 1009.16 1009.18 1009.21 1009.08 1009.20 1009.03 1008.98 1008.91 1009.03 1008.91 1008.72 1008.68 1008.59 1008.82 1008.90 1009.07 1009.21 1009.28 1009.41 1009.45 1009.59 1009.62 1009.58 1009.63 1009.65 1009.77 1009.96 1010.16 1010.53 1011.40 1011.57 1011.58 1011.29 1011.12 1011.24 1011.00 1010.56 1010.04 1009.65 1009.51 1009.34
1008.60 1008.90 1009.05 1009.09 1009.07 1009.02 1009.01 1008.91 1008.89 1008.81 1008.67 1008.49 1008.44 1008.44 1008.29 1008.29 1008.41 1008.49 1008.59 1008.87 1008.78 1008.82 1008.98 1008.99 1009.10 1009.64 1009.63 1009.52 1009.90 1010.76 1011.02 1011.48 1011.35 1011.55 1011.45 1011.16 1010.68 1010.17 1009.96 1009.24 1008.98 1008.90 1008.84
Thickness
5852 5850 5848 5824 5831 5835 5828 5829 5825 5824 5824 5815 5813 5810 5804 5800 5798 5792 5785 5780 5774 5775 5774 5769 5768 5766 5769 5766 5768 5768 5765 5766 5762 5771 5773 5770 5763 5763 5764 5758 5758 5759 5759
5832 5835 5845 5827 5822 5833 5830 5827 5825 5819 5821 5817 5810 5802 5794 5790 5787 5783 5785 5783 5773 5767 5768 5763 5760 5759 5758 5758 5759 5756 5756 5758 5756 5752 5756 5754 5755 5753 5751 5749 5749 5752 5755
5831 5833 5834 5826 5816 5823 5822 5819 5819 5816 5813 5810 5801 5793 5787 5779 5773 5768 5767 5760 5762 5762 5763 5758 5756 5751 5747 5747 5750 5749 5752 5752 5751 5749 5745 5748 5745 5744 5742 5744 5741 5741 5737
5825 5828 5822 5816 5816 5819 5816 5811 5809 5808 5803 5798 5791 5787 5780 5773 5767 5762 5753 5750 5749 5751 5753 5748 5743 5746 5744 5741 5740 5741 5744 5743 5742 5739 5734 5728 5731 5730 5734 5734 5727 5730 5727
5805 5804 5802 5803 5810 5811 5808 5805 5802 5799 5794 5790 5785 5780 5772 5766 5760 5754 5753 5744 5744 5746 5751 5741 5735 5733 5731 5732 5732 5732 5731 5730 5728 5725 5719 5714 5714 5715 5712 5715 5712 5716 5720
5794 5794 5796 5795 5794 5796 5798 5792 5790 5790 5789 5783 5778 5774 5765 5761 5746 5741 5739 5740 5749 5749 5741 5736 5728 5723 5723 5724 5724 5721 5723 5719 5713 5708 5702 5699 5698 5699 5700 5700 5698 5700 5704
5786 5787 5784 5783 5781 5782 5785 5784 5782 5780 5778 5775 5770 5765 5761 5754 5737 5729 5728 5742 5744 5742 5733 5728 5727 5721 5716 5714 5713 5712 5708 5708 5708 5703 5696 5691 5689 5687 5689 5688 5688 5689 5695
5772 5772 5773 5772 5772 5772 5770 5772 5772 5770 5766 5762 5759 5755 5753 5747 5738 5730 5727 5737 5735 5729 5723 5722 5719 5715 5710 5711 5712 5707 5701 5699 5700 5701 5699 5693 5688 5683 5684 5685 5685 5688 5693
5760 5763 5765 5765 5759 5760 5758 5757 5757 5755 5752 5753 5750 5745 5743 5738 5731 5725 5723 5727 5723 5717 5711 5711 5709 5702 5696 5698 5702 5696 5693 5691 5685 5686 5686 5682 5682 5683 5681 5684 5683 5682 5685
5748 5750 5751 5754 5751 5746 5744 5740 5739 5739 5738 5739 5735 5733 5731 5728 5720 5717 5717 5719 5714 5712 5702 5698 5691 5690 5684 5686 5691 5688 5684 5682 5680 5678 5678 5676 5678 5673 5675 5680 5680 5677 5677
5740 5738 5737 5737 5740 5736 5732 5727 5725 5720 5719 5718 5719 5718 5717 5714 5707 5704 5705 5712 5707 5706 5699 5695 5691 5674 5669 5671 5672 5676 5673 5673 5669 5673 5672 5676 5671 5671 5669 5669 5666 5667 5666
5724 5725 5725 5726 5727 5725 5717 5712 5708 5704 5702 5700 5700 5699 5699 5697 5692 5691 5692 5696 5697 5699 5691 5686 5673 5665 5655 5659 5664 5659 5659 5661 5669 5670 5670 5668 5665 5664 5657 5654 5653 5651 5651
5716 5715 5713 5712 5712 5707 5699 5692 5688 5686 5684 5682 5683 5685 5682 5681 5678 5675 5678 5676 5677 5686 5680 5665 5656 5655 5654 5651 5648 5647 5647 5658 5659 5657 5654 5652 5650 5648 5644 5646 5642 5644 5640
5706 5704 5698 5694 5688 5685 5677 5669 5668 5671 5672 5671 5667 5661 5662 5648 5661 5662 5663 5662 5661 5664 5656 5653 5648 5649 5651 5645 5644 5646 5647 5643 5643 5643 5640 5640 5639 5638 5635 5632 5627 5629 5628
5679 5677 5672 5668 5663 5655 5650 5639 5646 5654 5655 5654 5652 5641 5641 5635 5638 5657 5655 5652 5654 5658 5652 5645 5646 5644 5644 5643 5640 5639 5638 5637 5634 5629 5626 5626 5625 5622 5622 5619 5615 5615 5610
5658 5654 5654 5653 5650 5643 5638 5632 5628 5629 5624 5624 5621 5636 5626 5627 5626 5629 5630 5631 5636 5636 5643 5643 5638 5640 5638 5636 5635 5634 5632 5625 5622 5620 5616 5614 5613 5612 5610 5606 5605 5601 5598
5646 5643 5637 5632 5626 5623 5622 5623 5622 5620 5620 5612 5604 5616 5622 5617 5611 5609 5613 5619 5620 5623 5637 5635 5634 5632 5631 5626 5625 5625 5623 5617 5607 5608 5606 5605 5602 5602 5594 5593 5591 5589 5585
5627 5622 5624 5619 5618 5610 5608 5602 5607 5606 5604 5591 5584 5593 5586 5598 5594 5599 5606 5609 5617 5617 5625 5626 5625 5623 5620 5617 5617 5616 5612 5606 5603 5600 5599 5595 5594 5590 5588 5587 5582 5577 5574
5619 5616 5611 5609 5605 5598 5594 5592 5592 5589 5581 5579 5577 5585 5577 5575 5583 5593 5597 5612 5617 5618 5621 5619 5615 5614 5613 5611 5607 5603 5597 5596 5593 5591 5589 5587 5584 5582 5577 5574 5571 5556 5554
5610 5603 5607 5604 5602 5598 5591 5585 5582 5585 5584 5584 5585 5585 5579 5577 5588 5597 5602 5607 5610 5612 5613 5611 5610 5606 5603 5601 5597 5593 5589 5587 5586 5582 5581 5578 5573 5569 5567 5563 5562 5560 5558
5608 5605 5595 5603 5600 5594 5591 5589 5586 5585 5581 5580 5583 5585 5584 5588 5594 5603 5607 5608 5607 5604 5604 5604 5603 5599 5596 5593 5589 5587 5586 5584 5582 5579 5574 5570 5565 5561 5558 5555 5555 5550 5548
5603 5600 5598 5595 5591 5588 5586 5587 5584 5584 5585 5586 5589 5587 5584 5591 5601 5604 5603 5602 5601 5599 5598 5594 5593 5593 5592 5590 5585 5583 5581 5577 5575 5570 5565 5562 5558 5557 5556 5551 5547 5545 5543
5602 5599 5596 5593 5591 5587 5588 5590 5592 5594 5596 5596 5595 5594 5592 5595 5598 5598 5597 5596 5595 5591 5590 5588 5584 5584 5586 5584 5579 5575 5572 5571 5566 5562 5558 5557 5556 5554 5551 5547 5543 5539 5536
5599 5596 5593 5593 5593 5596 5594 5590 5588 5585 5589 5590 5591 5592 5593 5593 5593 5593 5592 5593 5590 5585 5583 5578 5576 5575 5576 5575 5573 5568 5561 5556 5552 5551 5551 5549 5546 5541 5543 5541 5538 5536 5533
5597 5593 5590 5589 5589 5590 5587 5588 5589 5590 5588 5589 5592 5593 5593 5590 5589 5587 5585 5584 5582 5580 5577 5575 5573 5571 5571 5568 5563 5558 5552 5544 5542 5539 5538 5538 5533 5533 5533 5534 5535 5532 5530
5594 5591 5589 5589 5589 5588 5587 5587 5587 5588 5588 5591 5590 5588 5589 5588 5587 5585 5583 5579 5580 5579 5577 5575 5571 5564 5561 5558 5553 5548 5543 5537 5535 5533 5528 5528 5530 5531 5528 5531 5530 5526 5523